Regional Weather Roundup
Issued by NWS

Home | Current Version | Previous Version | Graphics & Text | Print | Product List | Glossary On
Versions: 1 2 3 4 5 6 7 8 9 10 11 12 13 14 15 16 17 18 19 20 21 22 23 24 25 26 27 28 29 30 31 32 33 34 35 36 37 38 39 40 41 42 43 44 45 46 47 48 49 50
000
ASUS43 KDMX 230301
RWRIA

WEATHER ROUNDUP FOR IOWA
NATIONAL WEATHER SERVICE DES MOINES IA
900 PM CST WED FEB 22 2017

NOTE: "FAIR" INDICATES FEW OR NO CLOUDS BELOW 12,000 FEET WITH NO
SIGNIFICANT WEATHER AND/OR OBSTRUCTIONS TO VISIBILITY.

* - THESE STATIONS ARE NOT NWS STATIONS...THUS NOT UNDER NWS
QUALITY CONTROL.  THEY ALSO DO NOT REPORT WEATHER SUCH
AS PRECIPITATION OR FOG.

IAZ001>003-012>014-020>022-031>034-043>046-230400-
   NORTHWEST IOWA

CITY           SKY/WX    TMP DP  RH WIND       PRES   REMARKS
CARROLL *      CLEAR     48  43  81 NW12      29.77R
CHEROKEE *     CLEAR     45  40  85 N12G17    29.77R
DENISON *      CLEAR     46  39  76 N5        29.75R
LE MARS *      CLEAR     43  37  81 N8        29.81R
ORANGE CITY *  CLEAR     43  39  87 N10       29.80R
SHELDON *      CLEAR     41  41 100 NW12      29.78R
SIOUX CITY     CLEAR     49  40  71 N15       29.79R
SPENCER        CLEAR     40  38  93 NW13      29.78R WCI  32
STORM LAKE *   CLEAR     45  41  87 NW12      29.76R
$$

IAZ055>058-069>071-079>083-090>094-230400-
   SOUTHWEST IOWA

CITY           SKY/WX    TMP DP  RH WIND       PRES   REMARKS
ATLANTIC *     CLEAR     48  41  76 N10       29.76R
CLARINDA *     CLEAR     50  39  66 N7        29.75R
COUNCIL BLFS * CLEAR     54  39  58 N10G16    29.76R
CRESTON *      CLEAR     55  37  50 N17       29.74R
HARLAN  *      CLEAR     46  41  81 N10       29.80R
LAMONI         CLEAR     57  39  51 N12       29.71R
RED OAK *      PTCLDY    54  37  54 N14       29.75R
SHENANDOAH *   CLEAR     55  37  50 N12       29.74R
$$

IAZ047>049-059>061-072>074-084-230400-
   CENTRAL IOWA

CITY           SKY/WX    TMP DP  RH WIND       PRES   REMARKS
AMES           CLEAR     54  44  69 NW16G24   29.72R
ANKENY *       CLEAR     55  43  62 NW14      29.73R
BOONE *        CLEAR     52  43  71 NW16      29.72R
CHARITON *     CLEAR     54  41  62 NW9       29.71R
DES MOINES     CLEAR     58  40  51 NW21G28   29.72R
GRINNELL*      CLEAR     53  43  70 W9        29.70R
KNOXVILLE *    CLEAR     55  41  58 NW10      29.69R
MARSHALLTOWN   CLEAR     49  43  80 W12       29.69R
NEWTON *       CLEAR     55  43  62 NW12      29.70R
PELLA *        CLEAR     55  42  62 NW12      29.71R
PERRY *          N/A     51  40  66 NW14      29.74R
$$

IAZ004>006-015-016-023>025-035-036-230400-
   NORTH CENTRAL IOWA

CITY           SKY/WX    TMP DP  RH WIND       PRES   REMARKS
ALGONA *       CLEAR     43  39  87 NW17G28   29.73R
CLARION *      CLEAR     45  43  93 NW18      29.72R
ESTHERVILLE    CLOUDY    39  38  96 NW24G30   29.76R WCI  28
FORT DODGE *   CLOUDY    48  39  71 NW9       29.75R
MASON CITY     PTCLDY    43  39  86 NW25      29.71R
FOREST CITY *  CLOUDY    41  37  87 NW18G24   29.71R
WEBSTER CITY * PTCLDY    48  45  87 NW15      29.72R
IOWA FALLS *     N/A     50  45  84 NW14      29.72R
$$

IAZ007>011-017>019-026>030-037>042-050>054-066-230400-
   NORTHEAST IOWA

CITY           SKY/WX    TMP DP  RH WIND       PRES   REMARKS
CEDAR RAPIDS   CLEAR     47  41  80 NW9       29.65R
CHARLES CITY * CLEAR     50  48  93 NW17G23   29.67R
CLINTON *      CLEAR     51  47  86 W10       29.64R
DECORAH *      CLEAR     48  45  87 VRB5      29.61S
DUBUQUE        CLEAR     52  44  74 W13       29.62R
MONTICELLO *   CLEAR     50  43  76 NW3       29.64R
OELWEIN *      CLEAR     46  46 100 W9        29.65R
WATERLOO       CLEAR     50  43  77 W9        29.66R
$$

IAZ064-065-067-068-078-230400-
   EAST CENTRAL IOWA

CITY           SKY/WX    TMP DP  RH WIND       PRES   REMARKS
DAVENPORT      CLEAR     54  46  74 W9        29.65R
IOWA CITY      CLEAR     53  41  63 W7        29.66R
MUSCATINE *    CLEAR     57  41  54 SW5       29.66R
QUAD CITIES    CLEAR     57  50  77 SW8       29.64R
$$

IAZ062-063-075>077-085>089-095>099-230400-
   SOUTHEAST IOWA

CITY           SKY/WX    TMP DP  RH WIND       PRES   REMARKS
BURLINGTON     CLEAR     56  52  86 SW8       29.67R
FAIRFIELD *    CLEAR     55  37  50 W8        29.67R
KEOKUK *       CLEAR     55  52  88 NW5G15    29.68R
OTTUMWA        CLEAR     55  37  50 NW9       29.68R
WASHINGTON *   CLEAR     54  39  58 W8        29.68R
$$

ABBREVIATIONS USED IN REMARKS
   TC - TEMPERATURES IN CELSIUS
  WCI - WIND CHILL INDEX
   HX - HEAT INDEX
  VSB - VISIBILITY
$$





USA.gov is the U.S. government's official web portal to all federal, state and local government web resources and services.